Find Starlink 33732

NORAD ID: 63575 Int'l Des: 2025-076 Owner: SPXS Country: US Constellation: starlink operational
LEOCIRCULAR

Current View

Loading 3D Globe...

About Starlink 33732

Starlink 33732 (NORAD 63575) is a starlink constellation satellite (v2 mini) launched Apr 14, 2025 by SPXS of US. It operates in LEO, CIRCULAR orbit with a mass of 575.00 kg.

About Starlink 33732

Description loading...

Upcoming Passes

Passes for default location (London). Set your location on the main map for personalized predictions.

Altitude History

Loading altitude history...

Two-Line Element Set

1 63575U 25076G 26170.98650196 .00010375 00000-0 38583-3 0 9992
2 63575 42.9995 104.1364 0000474 265.5789 94.5008 15.27593867 67475
Epoch: Jun 19, 2026 • Age: 25 hours

Current Status

Altitude 485.9 km
Velocity 7.62 km/s
Sub-Earth Point -15.56°S, 161.49°E
Launch Date Apr 14, 2025
Age 1.1 years
Type internet

Technical Details

Classification Payload
Mass 575.00 kg
Dry Mass 530.00 kg
Total Mass 575.00 kg
Length 0.30 m
Diameter 4.10 m
Span 29.00 m
Shape Box + pan
Manufacturer SPXS
Bus Type Starlink V2MO
Phase Status In Orbit
Owner/State SPXS/US

Most Searched